Other Public Products
Issued by NWS Grand Forks, ND

Home | Current Version | Previous Version | Graphics & Text | Print | Product List | Glossary On
Versions: 1 2 3 4 5 6 7 8 9 10 11 12 13 14 15 16 17 18 19 20 21 22 23 24 25 26 27 28 29 30 31 32 33 34 35 36 37 38 39 40 41 42 43 44 45 46 47 48 49 50
000
FPUS83 KFGF 041831
OPUFGF
PRAIRIE TO PINES WEATHER ROUNDUP
NATIONAL WEATHER SERVICE EASTERN NORTH DAKOTA/GRAND FORKS ND
100 PM CDT WED MAY 04 2016

 **SATELLITE DATA USED TO AUGMENT SKY COVER AT AUTOMATED STATIONS**
 *****  WEATHER ACROSS EASTERN NORTH DAKOTA  *****

CITY           SKY/WX    TMP DP  RH WIND       PRES   REMARKS
GRAND FORKS    MOSUNNY   62  35  36 N3        30.07F
6HR MIN TEMP:  37; 6HR MAX TEMP:  63;

GRAND FORKS AF SUNNY     63  32  31 VRB7      30.07F
GRAND CITY NWS NOT AVBL
BUXTON           N/A     65  37  35 NE5         N/A
DEVILS LAKE    SUNNY     61  35  37 S5        30.07F
6HR MIN TEMP:  36; 6HR MAX TEMP:  61;

FARGO          SUNNY     64  33  31 N8G18     30.06F
6HR MIN TEMP:  39; 6HR MAX TEMP:  65;

WAHPETON ARPT  CLEAR     63  30  29 NW12G18   30.05F
$$

 *****  WEATHER ACROSS CENTRAL AND WESTERN NORTH DAKOTA  *****

CITY           SKY/WX    TMP DP  RH WIND       PRES   REMARKS
JAMESTOWN      SUNNY     63  32  31 N7        30.07F
6HR MIN TEMP:  36; 6HR MAX TEMP:  63;

BISMARCK       SUNNY     72  35  25 VRB7      30.07F
6HR MIN TEMP:  36; 6HR MAX TEMP:  72;

MINOT          SUNNY     81  35  19 SW6       30.00F
6HR MIN TEMP:  46; 6HR MAX TEMP:  81;

MINOT AFB      SUNNY     78  40  25 SW14      29.98F
6HR MIN TEMP:  40; 6HR MAX TEMP:  78;

GARRISON         N/A     75  37  25 S8        30.03F
6HR MIN TEMP:  42; 6HR MAX TEMP:  75;

WILLISTON      SUNNY     81  40  23 SW13      30.00F
6HR MIN TEMP:  47; 6HR MAX TEMP:  81;

DICKINSON      SUNNY     77  39  25 SW9       30.04F
6HR MIN TEMP:  43; 6HR MAX TEMP:  77;

HETTINGER      SUNNY     75  41  29 VRB5      30.09F
6HR MIN TEMP:  36; 6HR MAX TEMP:  75;

$$

 *****  OTHER OBSERVATIONS NORTHEAST NORTH DAKOTA  *****

CITY           SKY/WX    TMP DP  RH WIND       PRES   REMARKS
WALHALLA       FAIR      63  32  31 S3        30.04F
LANGDON        FAIR      68  28  22 CALM      30.04F
CAVALIER       FAIR      63  32  31 CALM      30.05F
GRAFTON        FAIR      61  34  36 CALM      30.08F
CANDO          FAIR      66  34  30 S7        30.06F
FORT TOTTEN      N/A     64  34  32 N5        29.95S
ROLLA          FAIR      68  32  26 SW10G17   30.04F
RUGBY          FAIR      70  32  24 S9        30.03F
 ***** THE ABOVE OBSERVATIONS ARE NON NWS ARE NOT QUALITY
        CONTROLLED AND MAY MIS-REPORT RAIN FOR SNOW...
$$

 *****  OTHER OBSERVATIONS SOUTHEAST NORTH DAKOTA *****

CITY           SKY/WX    TMP DP  RH WIND       PRES   REMARKS
COOPERSTOWN    NOT AVBL
VALLEY CITY    FAIR      63  32  31 N6        30.09F
OAKES            N/A    N/A N/A N/A MISG        N/A
GWINNER        FAIR      64  32  29 N13G18    30.08F
SHEYENNE NWR     N/A     63  33  32 N8        29.95S
BUFFALO          N/A     62  29  28 NW12        N/A
WYNDMERE         N/A     64  34  32 N13         N/A
 ***** THE ABOVE OBSERVATIONS ARE NON NWS ARE NOT QUALITY
       CONTROLLED AND MAY MIS-REPORT RAIN FOR SNOW...
$$

  *****  WEATHER ACROSS NORTHERN MINNESOTA  *****

CITY           SKY/WX    TMP DP  RH WIND       PRES   REMARKS
FLAG ISLAND    SUNNY     54  21  28 CALM      30.04F
WARROAD        SUNNY     55  30  38 E8        30.06F
ROSEAU         SUNNY     61  19  20 N6        30.04F
HALLOCK        SUNNY     63  30  29 N6        30.05F
THF RVR FALLS  SUNNY     61  25  25 N10       30.06F
6HR MIN TEMP:  39; 6HR MAX TEMP:  61;

HALSTAD        NOT AVBL
FOSSTON        SUNNY     63  25  23 NW10G17   30.06S
BAUDETTE       SUNNY     55  22  27 N10       30.06S
6HR MIN TEMP:  41; 6HR MAX TEMP:  55;

WASKISH        SUNNY     59  23  25 N5        30.04S
CROOKSTON      SUNNY     61  34  36 N7G17     30.07F
$$
  *****  WEATHER ACROSS CENTRAL AND WEST MINNESOTA  *****

CITY           SKY/WX    TMP DP  RH WIND       PRES   REMARKS
BEMIDJI        SUNNY     58  28  32 N12       30.04F
PARK RAPIDS    SUNNY     61  21  21 N15G21    30.02F
6HR MIN TEMP:  41; 6HR MAX TEMP:  61;

WADENA         SUNNY     61  28  29 NW7G17    30.01F
DETROIT LAKES  SUNNY     61  28  29 N10G22    30.05F
MOORHEAD       SUNNY     63  32  31 N15       30.07F
FERGUS FALLS   SUNNY     61  34  36 N9G21     30.02F
ELBOW LAKE     FAIR      60  35  39 N15G23    30.04F
6HR MIN TEMP:  42; 6HR MAX TEMP:  60;

MORRIS MN      SUNNY     64  34  32 N15G26    30.02F
STAPLES        SUNNY     63  23  22 N15G24    30.01F
WHEATON        SUNNY     64  36  34 NW13G23   30.06F
$$
  *****  WEATHER ELSEWHERE ACROSS MINNESOTA  *****

CITY           SKY/WX    TMP DP  RH WIND       PRES   REMARKS
DULUTH         SUNNY     57  22  25 N17G25    29.96S
6HR MIN TEMP:  41; 6HR MAX TEMP:  58;

INTRNTL FALLS  SUNNY     55  18  23 NE12      30.03F
6HR MIN TEMP:  37; 6HR MAX TEMP:  55;

ELY            SUNNY     54  19  26 N3G21     29.98F
CLOQUET        SUNNY     57  16  19 N13G21    29.96F
BRAINERD       SUNNY     58  24  27 N15G24    30.02F
6HR MIN TEMP:  42; 6HR MAX TEMP:  59;

HIBBING        SUNNY     56  21  25 NW13G21   29.99S
6HR MIN TEMP:  38; 6HR MAX TEMP:  56;

ALEXANDRIA     SUNNY     62  34  35 N12G21    30.03F
6HR MIN TEMP:  43; 6HR MAX TEMP:  62;

SAINT CLOUD    SUNNY     62  29  28 N20G29    29.98F
6HR MIN TEMP:  41; 6HR MAX TEMP:  63;

MINNEAPOLIS    MOSUNNY   63  32  31 N15G24    29.97F
6HR MIN TEMP:  48; 6HR MAX TEMP:  63;

$$

  *****  WEATHER ACROSS SOUTH DAKOTA  *****

CITY           SKY/WX    TMP DP  RH WIND       PRES   REMARKS
SIOUX FALLS    MOSUNNY   63  38  39 N10G20    30.07F
6HR MIN TEMP:  43; 6HR MAX TEMP:  63;

BROOKINGS      SUNNY     62  34  35 N16G24    30.05F
WATERTOWN      SUNNY     64  34  32 N13G21    30.07F
6HR MIN TEMP:  40; 6HR MAX TEMP:  64;

HURON          SUNNY     64  34  32 N13G18    30.09F
6HR MIN TEMP:  36; 6HR MAX TEMP:  64;

SISSETON         N/A     65  30  27 N18G24    30.06F
ABERDEEN       SUNNY     66  31  27 N8        30.09F
6HR MIN TEMP:  40; 6HR MAX TEMP:  66;

MITCHELL       SUNNY     63  37  38 N9        30.11F
PIERRE         SUNNY     66  32  28 VRB5      30.11F
6HR MIN TEMP:  36; 6HR MAX TEMP:  67;

MOBRIDGE       SUNNY     68  39  34 SE7       30.08F
RAPID CITY     SUNNY     73  40  30 SW9       30.13F
6HR MIN TEMP:  42; 6HR MAX TEMP:  74;

$$

  *****  SOME WEATHER IN NEARBY STATES *****

CITY           SKY/WX    TMP DP  RH WIND       PRES   REMARKS
GLASGOW MT     SUNNY     80  43  26 S17       29.95F
6HR MIN TEMP:  49; 6HR MAX TEMP:  80;

GREAT FALLS MT SUNNY     78  34  20 SW17      29.97F
6HR MIN TEMP:  44; 6HR MAX TEMP:  78;

CHEYENNE WY    SUNNY     66  25  21 CALM      30.25F
6HR MIN TEMP:  39; 6HR MAX TEMP:  68;

SCOTTSBLUFF NE SUNNY     71  38  29 S6        30.18F
6HR MIN TEMP:  41; 6HR MAX TEMP:  71;

OMAHA NE       MOSUNNY   65  39  38 N21       30.05S
6HR MIN TEMP:  48; 6HR MAX TEMP:  65;

DES MOINES IA  MOSUNNY   63  31  30 N18       29.99S
6HR MIN TEMP:  51; 6HR MAX TEMP:  63;

DAVENPORT IA   PTSUNNY   58  36  43 N18G30    29.87S
6HR MIN TEMP:  46; 6HR MAX TEMP:  59;

CHICAGO IL     CLOUDY    48  36  63 N17       29.78S
6HR MIN TEMP:  46; 6HR MAX TEMP:  51;

EAU CLAIRE WI  MOSUNNY   59  29  31 NW18G31   29.92F
6HR MIN TEMP:  44; 6HR MAX TEMP:  60;

LA CROSSE WI   MOSUNNY   63  34  33 N17G30    29.89F
6HR MIN TEMP:  46; 6HR MAX TEMP:  63;

$$

  *****  SOME NATIONAL WEATHER *****

CITY           SKY/WX    TMP DP  RH WIND       PRES   REMARKS
LA GUARDIA NY  CLOUDY    51  48  89 NE16      29.75F               C1F1C2F2C3F3C4F4C5F5C6F6C7F7C8F8C9F9CaFaCbFbCcFcCdFdCe!



USA.gov is the U.S. government's official web portal to all federal, state and local government web resources and services.